Temp
-14 -14 -14 -14 -14 -14 -15 -15 -15 -15 -15 -15 -15 -15 -16 -16 -16 -16 -16 -16 -16 -16 -16 -16 -16 -16 -16 -16 -16 -16 -16 -17 -17 -17 -17 -17 -17 -17 -17 -17 -17 -17 -17
-14 -14 -14 -14 -15 -15 -16 -16 -16 -15 -16 -16 -15 -15 -15 -15 -16 -16 -16 -16 -16 -15 -15 -15 -16 -16 -16 -16 -17 -17 -18 -18 -18 -18 -18 -18 -18 -18 -18 -18 -17 -17 -17
-14 -14 -14 -15 -15 -16 -16 -16 -16 -16 -15 -15 -15 -15 -16 -16 -16 -16 -16 -16 -16 -16 -16 -16 -16 -16 -17 -17 -18 -18 -18 -18 -19 -19 -19 -18 -18 -19 -19 -19 -18 -18 -18
-14 -14 -15 -15 -15 -15 -15 -15 -15 -16 -16 -17 -16 -16 -16 -16 -17 -17 -17 -17 -17 -17 -17 -18 -18 -18 -18 -18 -18 -18 -18 -19 -19 -19 -19 -19 -19 -19 -19 -20 -20 -19 -19
-14 -14 -14 -15 -15 -15 -15 -16 -16 -17 -17 -17 -16 -16 -16 -17 -17 -17 -17 -18 -18 -18 -19 -19 -19 -19 -19 -19 -19 -19 -19 -19 -19 -19 -19 -20 -20 -20 -20 -19 -20 -21 -20
-15 -15 -15 -16 -16 -16 -16 -16 -16 -17 -17 -17 -17 -17 -17 -17 -17 -18 -18 -19 -19 -19 -19 -19 -20 -20 -20 -20 -20 -20 -20 -21 -21 -21 -21 -21 -21 -21 -21 -21 -20 -21 -22
-15 -16 -16 -16 -16 -16 -16 -16 -16 -17 -17 -17 -17 -17 -18 -19 -19 -19 -19 -19 -20 -20 -20 -20 -20 -20 -21 -21 -21 -22 -22 -22 -22 -22 -23 -23 -23 -23 -22 -22 -22 -22 -22
-16 -16 -15 -16 -16 -16 -16 -16 -16 -17 -17 -18 -18 -19 -19 -19 -20 -20 -20 -21 -21 -20 -21 -20 -20 -21 -21 -21 -22 -22 -22 -23 -24 -24 -24 -25 -25 -25 -24 -25 -25 -25 -25
-15 -16 -16 -16 -16 -16 -16 -16 -16 -17 -18 -18 -19 -19 -20 -20 -21 -21 -21 -21 -22 -22 -21 -21 -21 -21 -21 -22 -22 -23 -23 -25 -25 -24 -25 -25 -25 -25 -25 -25 -26 -25 -25
-15 -16 -16 -16 -16 -16 -17 -17 -17 -18 -18 -19 -19 -20 -20 -21 -21 -21 -22 -22 -22 -22 -22 -23 -22 -22 -22 -23 -24 -24 -24 -25 -26 -27 -27 -26 -26 -26 -26 -26 -26 -26 -26
-16 -16 -16 -16 -17 -18 -18 -18 -19 -19 -19 -19 -20 -20 -21 -21 -21 -22 -22 -22 -23 -23 -23 -23 -23 -23 -24 -25 -25 -26 -27 -28 -28 -27 -27 -27 -26 -26 -26 -27 -27 -26 -26
-17 -18 -18 -18 -18 -17 -18 -18 -19 -19 -20 -20 -21 -21 -21 -22 -23 -23 -23 -23 -23 -23 -24 -24 -24 -26 -27 -27 -28 -28 -28 -28 -28 -28 -28 -28 -28 -28 -27 -27 -27 -27 -27
-18 -17 -17 -17 -18 -18 -19 -19 -20 -20 -21 -21 -21 -22 -23 -23 -23 -23 -24 -24 -24 -25 -26 -26 -27 -29 -29 -29 -29 -29 -29 -29 -29 -28 -28 -28 -28 -28 -27 -27 -27 -27 -27
-16 -17 -18 -18 -19 -19 -19 -20 -21 -21 -21 -21 -22 -23 -23 -24 -24 -24 -24 -24 -25 -26 -28 -29 -30 -30 -30 -30 -29 -29 -29 -29 -29 -28 -28 -28 -28 -28 -28 -27 -27 -27 -27
-17 -18 -18 -19 -20 -20 -20 -21 -21 -22 -22 -23 -23 -23 -23 -24 -25 -25 -25 -26 -27 -29 -30 -30 -30 -30 -30 -30 -30 -29 -29 -29 -29 -29 -29 -29 -28 -28 -28 -28 -28 -28 -28
-18 -19 -20 -20 -20 -21 -21 -21 -22 -23 -23 -24 -24 -24 -25 -25 -26 -26 -27 -28 -30 -30 -30 -30 -30 -30 -30 -30 -30 -29 -29 -29 -29 -29 -29 -29 -29 -28 -28 -28 -28 -29 -29
-19 -20 -21 -21 -21 -22 -22 -22 -23 -24 -24 -25 -25 -26 -26 -26 -27 -28 -29 -30 -30 -30 -30 -30 -30 -30 -30 -30 -30 -29 -29 -29 -29 -29 -29 -29 -29 -28 -29 -30 -30 -29 -29
-20 -21 -21 -21 -22 -23 -23 -24 -24 -24 -25 -25 -26 -27 -27 -27 -28 -30 -30 -30 -30 -31 -31 -30 -30 -30 -30 -30 -30 -29 -29 -29 -29 -29 -29 -28 -29 -30 -30 -29 -29 -29 -29
-21 -21 -22 -22 -22 -23 -24 -24 -24 -25 -26 -26 -27 -27 -28 -30 -31 -30 -31 -31 -31 -31 -31 -31 -31 -31 -30 -30 -30 -30 -30 -29 -29 -29 -29 -29 -30 -29 -29 -29 -29 -29 -30
-21 -22 -22 -23 -24 -25 -25 -25 -26 -26 -26 -27 -27 -28 -30 -30 -30 -31 -31 -31 -31 -31 -31 -31 -31 -30 -30 -30 -30 -30 -30 -30 -30 -30 -29 -30 -29 -29 -29 -29 -30 -30 -30
-22 -23 -24 -25 -24 -25 -26 -26 -26 -27 -27 -29 -29 -30 -31 -30 -31 -31 -31 -31 -31 -31 -31 -31 -32 -32 -32 -31 -31 -30 -30 -30 -30 -30 -31 -30 -29 -29 -29 -29 -30 -30 -31
-23 -24 -25 -26 -25 -26 -27 -27 -27 -28 -29 -30 -31 -31 -31 -31 -31 -31 -31 -31 -31 -32 -33 -33 -34 -34 -35 -34 -33 -32 -31 -31 -31 -31 -30 -30 -29 -29 -30 -30 -30 -30 -30
-25 -25 -26 -27 -27 -28 -28 -28 -29 -30 -31 -31 -31 -31 -31 -31 -31 -31 -31 -32 -33 -34 -34 -35 -35 -35 -36 -35 -35 -34 -32 -32 -32 -31 -31 -30 -29 -29 -30 -29 -30 -30 -30
-26 -26 -27 -27 -28 -28 -29 -29 -30 -30 -31 -31 -31 -31 -31 -31 -31 -32 -33 -34 -34 -35 -35 -35 -35 -35 -36 -36 -35 -34 -33 -33 -32 -32 -31 -30 -29 -29 -29 -29 -29 -29 -30
-27 -27 -28 -29 -29 -29 -30 -30 -31 -31 -30 -31 -31 -31 -31 -31 -32 -33 -34 -35 -35 -36 -36 -35 -36 -36 -36 -36 -35 -34 -33 -33 -32 -32 -31 -30 -30 -29 -29 -29 -29 -30 -29
-28 -28 -29 -29 -30 -30 -30 -31 -31 -31 -31 -31 -31 -31 -31 -32 -33 -34 -35 -36 -36 -36 -36 -36 -36 -36 -35 -35 -35 -34 -34 -33 -33 -32 -32 -30 -30 -30 -29 -29 -29 -29 -29
Height
5800 5799 5796 5793 5790 5786 5781 5777 5773 5769 5764 5760 5755 5750 5745 5741 5737 5731 5726 5720 5715 5710 5706 5703 5698 5692 5688 5683 5680 5677 5674 5671 5668 5666 5664 5661 5659 5659 5657 5657 5658 5659 5661
5799 5796 5792 5788 5784 5781 5776 5771 5766 5761 5755 5750 5745 5741 5735 5729 5724 5720 5717 5711 5705 5699 5694 5689 5683 5677 5672 5667 5662 5660 5658 5655 5651 5648 5646 5646 5644 5643 5640 5639 5641 5642 5644
5794 5789 5786 5783 5778 5774 5769 5764 5759 5753 5747 5741 5736 5731 5726 5721 5715 5708 5702 5696 5691 5685 5680 5675 5669 5664 5657 5654 5649 5644 5641 5638 5636 5634 5630 5627 5627 5625 5624 5622 5621 5621 5623
5787 5784 5780 5775 5770 5765 5761 5756 5750 5745 5739 5733 5727 5722 5715 5709 5702 5696 5689 5683 5677 5671 5665 5659 5653 5647 5641 5636 5631 5627 5622 5619 5615 5612 5612 5611 5609 5607 5607 5607 5605 5603 5602
5782 5777 5772 5768 5763 5757 5752 5746 5741 5736 5730 5723 5717 5710 5701 5693 5686 5680 5674 5668 5662 5655 5649 5642 5637 5632 5625 5619 5613 5609 5604 5598 5594 5590 5588 5586 5586 5584 5584 5589 5588 5585 5586
5772 5767 5762 5757 5752 5747 5742 5736 5730 5724 5717 5709 5701 5693 5685 5679 5672 5665 5659 5652 5646 5639 5632 5625 5617 5611 5604 5597 5591 5585 5581 5576 5572 5569 5565 5562 5559 5557 5558 5560 5563 5562 5567
5762 5757 5753 5748 5742 5736 5729 5723 5716 5710 5703 5694 5685 5677 5670 5663 5657 5650 5643 5635 5627 5621 5614 5606 5597 5590 5583 5576 5570 5564 5559 5554 5550 5545 5542 5539 5538 5535 5532 5530 5534 5534 5536
5752 5746 5740 5735 5729 5723 5717 5710 5703 5696 5688 5681 5674 5666 5658 5649 5642 5634 5625 5615 5606 5598 5591 5584 5577 5569 5562 5555 5549 5542 5537 5533 5529 5525 5522 5520 5518 5516 5514 5511 5510 5511 5512
5741 5736 5731 5725 5718 5712 5705 5698 5692 5685 5676 5668 5660 5651 5641 5634 5625 5615 5605 5596 5586 5576 5569 5560 5554 5546 5537 5531 5525 5519 5515 5512 5508 5505 5503 5503 5500 5496 5497 5495 5493 5489 5492
5733 5728 5721 5714 5707 5701 5695 5687 5679 5671 5661 5652 5644 5636 5626 5616 5607 5597 5586 5574 5565 5556 5547 5538 5529 5522 5514 5507 5502 5497 5493 5491 5486 5485 5484 5483 5480 5480 5478 5475 5473 5470 5467
5724 5718 5711 5704 5697 5689 5681 5674 5665 5656 5647 5637 5628 5618 5609 5598 5588 5577 5566 5554 5545 5536 5527 5515 5506 5498 5491 5485 5480 5476 5472 5470 5468 5466 5465 5463 5459 5460 5458 5454 5452 5450 5448
5713 5707 5700 5692 5685 5677 5669 5659 5650 5640 5630 5621 5611 5601 5590 5578 5567 5557 5546 5535 5524 5514 5505 5494 5483 5475 5470 5465 5462 5459 5455 5453 5451 5449 5446 5444 5441 5440 5437 5434 5433 5431 5429
5702 5695 5688 5680 5671 5662 5652 5642 5632 5623 5613 5603 5592 5582 5571 5559 5548 5538 5526 5513 5502 5492 5482 5473 5464 5458 5454 5449 5446 5444 5440 5437 5435 5432 5429 5426 5424 5422 5418 5416 5415 5413 5410
5690 5682 5674 5665 5655 5645 5636 5626 5616 5605 5595 5584 5574 5564 5552 5540 5528 5516 5504 5491 5480 5469 5460 5453 5449 5444 5440 5436 5432 5429 5425 5422 5419 5415 5412 5409 5406 5403 5400 5397 5395 5392 5390
5677 5668 5660 5649 5640 5629 5619 5609 5598 5588 5578 5568 5556 5545 5533 5520 5507 5495 5482 5470 5459 5450 5445 5440 5435 5430 5426 5422 5418 5415 5411 5408 5404 5400 5396 5392 5389 5385 5381 5378 5376 5372 5370
5663 5654 5644 5634 5624 5614 5604 5594 5583 5571 5561 5549 5538 5524 5513 5499 5487 5472 5460 5450 5443 5438 5432 5427 5421 5416 5412 5407 5404 5401 5398 5393 5389 5385 5381 5377 5372 5367 5364 5360 5356 5354 5352
5648 5639 5629 5618 5607 5597 5587 5575 5565 5554 5542 5531 5519 5504 5491 5479 5465 5454 5445 5438 5431 5425 5419 5413 5407 5403 5398 5395 5391 5387 5383 5378 5373 5369 5365 5361 5357 5352 5348 5345 5343 5342 5341
5632 5620 5607 5598 5586 5576 5567 5557 5547 5537 5525 5512 5498 5485 5471 5458 5447 5439 5432 5424 5417 5411 5405 5400 5394 5390 5385 5380 5376 5372 5367 5363 5358 5354 5350 5347 5344 5339 5337 5337 5336 5333 5330
5612 5604 5592 5579 5570 5560 5550 5540 5528 5519 5507 5494 5481 5468 5453 5443 5435 5427 5418 5411 5405 5399 5392 5386 5380 5375 5370 5364 5359 5356 5353 5349 5344 5340 5337 5335 5332 5331 5329 5327 5324 5321 5317
5594 5586 5575 5565 5554 5544 5532 5520 5510 5498 5487 5476 5463 5450 5440 5433 5424 5415 5407 5400 5392 5385 5378 5371 5363 5356 5351 5345 5342 5340 5339 5336 5332 5328 5327 5324 5324 5323 5320 5316 5312 5309 5304
5581 5570 5560 5550 5539 5528 5516 5502 5490 5479 5469 5456 5445 5436 5429 5420 5411 5403 5395 5387 5379 5370 5361 5354 5345 5337 5330 5326 5323 5323 5324 5323 5321 5320 5319 5318 5317 5315 5311 5307 5303 5299 5296
5564 5554 5544 5535 5522 5510 5497 5485 5471 5460 5451 5441 5432 5424 5416 5408 5399 5390 5381 5372 5362 5353 5345 5338 5331 5322 5314 5307 5305 5307 5309 5311 5312 5312 5313 5312 5311 5310 5307 5303 5299 5296 5294
5547 5537 5528 5517 5505 5492 5481 5469 5456 5446 5438 5430 5422 5414 5405 5397 5387 5378 5368 5357 5348 5340 5332 5325 5319 5313 5305 5298 5294 5295 5298 5302 5304 5306 5307 5307 5307 5305 5304 5301 5298 5295 5292
5532 5521 5510 5499 5488 5476 5464 5454 5445 5436 5430 5421 5413 5404 5395 5385 5375 5364 5354 5345 5337 5330 5322 5315 5309 5302 5295 5290 5288 5288 5291 5295 5299 5301 5302 5302 5303 5302 5302 5300 5297 5294 5291
5516 5506 5494 5485 5474 5462 5451 5442 5434 5428 5421 5412 5404 5395 5385 5375 5365 5354 5344 5336 5327 5320 5313 5306 5300 5294 5288 5284 5283 5284 5288 5291 5295 5297 5298 5298 5299 5299 5300 5299 5297 5293 5289
5503 5493 5483 5470 5461 5451 5441 5433 5427 5419 5412 5404 5395 5386 5376 5365 5355 5346 5338 5327 5320 5312 5305 5299 5293 5289 5285 5282 5282 5284 5287 5290 5293 5295 5295 5295 5297 5296 5297 5297 5295 5291 5288
Wind_Speed
24 27 29 30 32 33 33 35 39 39 41 44 47 48 52 54 54 53 53 54 57 58 59 59 58 59 59 60 59 59 60 60 61 61 61 61 62 61 61 62 62 63 62
27 28 29 30 30 31 32 37 41 42 47 50 50 53 55 56 56 55 53 54 56 58 60 61 60 60 62 62 62 59 57 56 56 58 59 59 61 62 63 65 63 63 61
27 30 31 29 32 33 36 40 43 45 51 52 53 56 54 54 54 53 54 54 54 56 58 60 62 63 64 63 63 64 63 63 61 57 60 63 62 60 60 62 65 64 62
29 32 30 34 32 35 40 42 44 48 53 54 56 56 54 51 52 53 54 54 57 58 60 61 63 65 66 67 68 68 68 68 68 66 62 58 60 63 62 61 63 65 65
33 32 35 36 38 42 44 47 48 52 52 55 54 54 55 56 56 58 59 61 62 64 66 67 68 69 70 69 69 70 70 71 70 70 70 65 60 61 64 62 62 62 62
35 37 40 42 44 46 47 49 50 49 52 53 55 57 58 60 62 62 63 65 67 68 70 72 74 75 76 77 78 78 75 72 65 65 62 64 64 66 66 65 63 63 55
39 41 43 44 46 46 48 51 52 52 52 57 59 60 63 66 67 69 71 72 72 72 76 78 78 78 78 78 77 73 71 70 67 61 55 67 65 64 67 66 66 67 65
44 46 47 47 47 49 51 54 53 55 58 60 62 62 64 68 72 75 74 76 80 82 79 78 80 79 80 80 79 77 72 68 60 60 63 67 67 67 68 67 71 71 74
46 47 46 46 49 51 53 56 58 58 62 65 64 66 65 70 75 77 80 84 85 85 86 83 84 84 82 80 75 67 63 58 59 57 58 65 75 83 75 70 70 75 80
42 43 44 46 50 54 56 57 60 63 65 69 73 74 77 81 78 83 86 88 89 87 86 87 85 83 81 70 62 60 58 57 53 54 62 66 67 73 76 82 85 86 88
42 42 45 50 54 54 58 63 64 67 68 70 72 75 77 81 85 86 88 88 88 88 89 84 80 74 64 57 55 53 52 51 52 59 66 71 76 77 79 81 80 78 76
40 45 50 53 58 62 64 66 66 67 68 68 68 75 80 84 88 91 91 89 89 88 82 75 68 58 53 51 49 48 48 49 50 52 54 56 59 61 63 64 65 66 68
48 54 58 61 64 65 66 67 67 68 70 75 79 79 83 84 86 94 94 94 90 84 77 66 51 45 45 46 47 47 48 49 50 51 51 51 54 56 60 61 61 62 64
60 62 62 63 66 68 69 69 70 74 78 78 78 80 84 86 91 96 96 90 82 71 55 46 44 44 47 50 52 50 47 46 45 47 50 52 54 55 58 61 63 65 65
62 64 64 66 66 68 70 72 73 77 78 81 81 83 90 97 97 98 88 78 66 48 42 44 47 51 55 55 50 46 44 45 47 49 50 52 55 58 60 59 58 60 62
64 64 64 68 69 71 71 71 74 69 72 81 87 96 100 99 93 87 74 60 46 44 45 47 49 50 49 47 44 44 44 47 48 49 51 53 55 55 54 55 54 47 37
67 67 68 68 71 73 74 75 77 77 77 85 91 89 88 95 80 68 57 49 46 44 45 45 45 44 43 43 45 47 48 48 48 50 50 49 48 48 45 36 31 32 35
69 72 74 76 74 75 78 80 80 80 91 96 89 88 94 82 66 58 52 50 46 44 43 43 44 45 48 49 50 50 48 48 49 47 46 43 42 36 31 32 36 40 43
76 74 79 82 80 76 77 81 89 95 96 91 90 92 75 62 55 53 52 48 46 46 48 50 51 52 52 52 51 49 47 46 44 43 41 38 30 29 33 37 37 36 37
81 81 80 77 79 79 81 85 88 91 91 94 86 67 57 53 54 52 49 50 51 52 53 54 55 56 55 55 52 49 44 40 38 36 34 30 26 30 33 31 30 29 30
82 78 74 72 78 85 82 93 92 88 88 71 57 52 53 55 52 52 54 55 55 56 57 56 56 56 55 54 52 46 38 34 30 28 25 24 26 28 24 27 27 23 19
79 78 79 81 86 88 87 91 91 81 67 56 51 55 54 52 55 56 58 58 57 55 53 50 46 44 44 46 45 38 31 25 21 21 18 19 20 14 12 13 13 12 10
79 77 82 79 83 86 85 82 73 64 54 50 53 52 53 55 58 59 58 54 51 49 47 44 39 37 37 37 36 26 19 16 16 12 14 12 6 4 7 10 12 12 12
76 76 77 82 82 80 76 68 59 51 48 51 50 51 55 57 58 55 51 49 47 44 42 40 38 35 32 29 25 15 10 11 8 9 7 4 5 2 6 11 13 14 15
75 78 82 79 77 70 65 59 50 46 48 48 49 53 55 56 52 48 46 45 43 42 41 38 34 30 22 19 10 7 11 10 6 1 7 4 6 4 4 7 10 18 17
79 78 76 74 66 62 57 47 44 45 46 46 49 52 53 51 47 44 42 40 42 42 38 34 29 18 14 9 3 8 8 7 3 1 5 4 8 5 2 5 12 18 18
Wind_Direction
308 313 312 307 305 303 304 300 299 298 300 300 303 309 312 312 308 306 304 303 301 300 300 299 298 298 297 295 293 292 290 288 286 284 281 280 279 278 275 271 268 266 265
305 306 300 297 300 299 297 294 295 299 306 308 309 310 310 308 306 304 304 303 301 300 299 298 299 299 298 298 297 293 289 286 284 283 282 280 279 277 275 274 272 270 268
299 300 299 299 299 294 289 293 298 297 301 306 307 303 305 305 304 305 305 303 301 300 298 297 295 294 293 292 290 289 288 287 283 281 279 277 273 272 272 273 274 273 270
301 306 305 304 302 299 299 298 297 297 301 301 301 304 303 303 303 302 301 301 299 298 295 294 294 293 292 291 291 291 291 289 287 285 281 275 273 273 271 269 270 271 272
309 307 307 308 304 303 303 301 299 300 300 301 304 303 303 304 304 302 302 300 299 298 298 298 297 295 294 293 292 291 292 290 288 287 286 283 277 273 272 268 265 263 264
309 312 311 308 306 304 301 298 300 301 301 304 305 304 302 303 304 303 301 300 298 297 298 299 299 298 297 296 296 295 294 291 287 286 281 281 280 275 272 270 268 265 263
312 310 306 301 302 304 302 303 305 306 305 307 307 306 304 303 304 303 302 300 299 299 300 301 300 298 296 295 294 293 291 290 288 283 278 278 279 279 276 276 275 273 273
308 305 305 307 308 307 309 309 307 307 307 306 304 304 304 301 299 300 301 302 302 303 301 299 297 296 295 294 293 291 289 285 284 276 269 272 276 278 282 278 282 283 280
305 308 309 309 308 308 308 307 306 305 302 298 299 299 300 303 304 304 303 303 303 303 302 302 300 299 297 295 292 288 284 278 275 277 277 275 277 268 267 267 267 269 269
304 304 305 305 307 307 304 302 303 301 298 297 298 297 296 301 303 302 302 301 301 302 301 300 302 300 297 293 287 283 279 276 275 267 263 263 263 262 264 268 270 270 272
304 305 306 304 302 301 301 303 302 299 298 295 296 298 298 300 302 303 303 303 303 303 303 304 303 301 296 291 285 281 279 276 270 267 263 261 263 265 268 270 271 272 274
303 306 305 303 302 301 300 298 297 297 298 296 297 297 301 303 305 307 307 308 307 306 305 309 305 299 293 288 284 282 280 278 277 275 274 273 272 272 273 274 274 275 274
304 303 302 302 303 303 302 301 300 299 300 303 302 301 300 301 300 305 307 308 311 308 308 309 300 295 292 293 292 289 286 284 282 279 277 275 274 275 276 275 275 274 273
306 306 306 304 304 305 305 304 304 303 303 303 302 301 300 301 308 312 313 312 310 309 309 303 297 293 283 289 294 294 290 288 286 284 285 284 282 280 279 278 277 275 275
306 308 309 305 304 303 304 304 304 303 304 302 304 297 296 308 313 314 313 311 311 309 307 299 293 285 288 290 291 290 288 288 287 287 286 285 284 282 280 280 278 277 276
306 306 304 304 305 305 302 301 303 306 297 297 300 305 310 312 313 315 313 311 309 307 301 297 294 294 292 291 289 288 292 292 289 287 286 285 283 282 283 283 281 277 272
307 308 307 307 306 306 306 304 307 306 305 307 310 312 315 317 316 312 310 310 307 303 299 297 296 294 292 291 293 294 295 293 291 290 289 286 285 287 284 279 276 276 277
310 310 310 311 310 309 308 306 305 304 309 315 318 316 313 316 313 313 312 310 308 306 304 301 299 297 296 295 295 295 295 294 293 292 288 288 289 281 275 277 278 279 280
314 311 310 311 309 306 306 301 303 310 312 313 317 316 316 314 314 312 311 310 309 307 305 302 300 298 296 294 293 293 294 293 292 289 289 291 283 275 278 284 288 288 284
312 311 310 308 306 305 304 307 308 312 314 313 315 316 315 314 313 312 312 312 310 308 305 302 301 298 296 294 292 291 291 289 286 287 289 284 277 282 296 300 298 296 293
310 310 309 305 301 306 308 310 315 316 318 318 318 319 317 316 315 314 314 312 310 308 305 304 302 300 297 293 290 287 286 283 283 282 275 276 288 305 307 304 308 305 294
310 309 310 305 304 309 312 314 317 321 319 319 322 320 319 318 317 315 314 313 311 310 311 310 310 308 304 298 293 288 279 278 272 262 267 286 300 306 327 343 358 355 327
310 307 307 310 311 313 316 318 320 319 318 319 321 321 320 318 317 316 315 315 315 316 315 315 313 309 305 301 298 288 268 255 239 252 273 281 274 354 358 354 357 355 344
306 306 308 313 317 318 319 320 319 319 319 320 321 322 321 319 319 319 319 319 319 319 320 318 318 316 311 304 300 276 216 200 217 243 274 276 213 78 347 360 2 5 357
308 310 317 318 318 319 320 318 319 318 320 322 323 323 322 322 323 323 323 322 323 323 323 323 323 321 312 304 300 200 175 179 183 254 311 274 216 140 345 349 354 359 3
311 316 316 318 319 319 318 318 318 320 323 325 325 325 326 326 326 326 326 326 329 327 328 328 329 333 325 311 241 169 164 164 171 259 331 266 204 151 283 316 341 355 359